Overview Statistics Trail Chart Weather Telemetry Raw packets
 

This is the latest recevied weather packets stored in our database for station/object K3RUP-1. If no packets are shown the sender has not sent any weather packets the latest 10 day(s).

<< 67 68 69 70 71 72 73 >>
Time Temp. Humidity Pressure Rain* Wind** Luminosity Snow
1788213805 27.22° C 84% 1017.8 hPa 0 mm - 35 W/m² -
1788213501 27.22° C 83% 1017.9 hPa 0 mm - 50 W/m² -
1788213196 27.22° C 82% 1017.9 hPa 0 mm - 54 W/m² -
1788212893 27.22° C 82% 1018 hPa 0 mm - 52 W/m² -
1788212590 27.22° C 81% 1017.7 hPa 0 mm - 51 W/m² -
1788212285 27.22° C 82% 1017.7 hPa 0 mm - 53 W/m² -
1788211981 27.22° C 82% 1017.8 hPa 0 mm - 59 W/m² -
1788211676 27.78° C 82% 1018 hPa 0 mm - 75 W/m² -
1788211373 28.33° C 80% 1017.6 hPa 0 mm - 84 W/m² -
1788211071 28.33° C 79% 1017.8 hPa 0 mm - 88 W/m² -
1788210766 28.33° C 79% 1017.7 hPa 0 mm - 92 W/m² -
1788210461 28.33° C 78% 1017.6 hPa 0 mm - 117 W/m² -
1788210157 28.33° C 77% 1017.6 hPa 0 mm - 142 W/m² -
1788209856 28.33° C 78% 1017.8 hPa 0 mm - 148 W/m² -
1788209552 28.33° C 79% 1017.5 hPa 0 mm - 150 W/m² -
1788209247 27.78° C 79% 1018 hPa 0 mm - 141 W/m² -
1788208946 27.78° C 79% 1017.8 hPa 0 mm - 139 W/m² -
1788208646 27.78° C 79% 1017.7 hPa 0 mm - 133 W/m² -
1788208346 27.78° C 79% 1017.8 hPa 0 mm - 136 W/m² -
1788208044 27.78° C 78% 1017.4 hPa 0 mm - 134 W/m² -
1788207739 27.78° C 78% 1017.5 hPa 0 mm - 142 W/m² -
1788207439 27.78° C 79% 1017.7 hPa 0 mm - 151 W/m² -
1788207133 27.78° C 80% 1017.6 hPa 0 mm - 156 W/m² -
1788206829 27.78° C 80% 1017.6 hPa 0 mm - 147 W/m² -
1788206529 27.78° C 80% 1017.7 hPa 0 mm - 148 W/m² -

* Rain latest hour (hover to see other rain measurements)
** Current wind speed in m/s (hover to see current wind gust speed)